{"data":{"norad_id":26554,"intl_designator":"2000-059A","name":"NSS-11","alt_names":[],"object_type":"PAYLOAD","status":"ACTIVE","operator":null,"country":"SES","launch_date":"2000-10-01","launch_site_code":"TYMSC","launch_vehicle":null,"mission":null,"orbit_class":"UNKNOWN","rcs_meters":19.9526,"size_class":null,"mass_kg":null,"dimensions":null,"purposes":["comms"],"wikipedia_slug":null,"has_3d_model":false,"image_url":null,"decayed_at":null,"tle_current":{"epoch":"2026-09-19T21:13:41.827296Z","epoch_age_seconds":64322,"freshness":"FRESH","line1":"1 26554U 00059A   26262.88451189  .00000021  00000+0  00000+0 0  9999","line2":"2 26554   2.3638  80.1567 0003018 107.4447 305.6249  1.00272829 42244","mean_motion":1.00272829,"eccentricity":0.0003018,"inclination_deg":2.3638,"raan_deg":80.1567,"arg_perigee_deg":107.4447,"mean_anomaly_deg":305.6249,"bstar":0,"rev_number":4224,"period_min":1436.0819519713,"perigee_km":35773.577064853,"apogee_km":35799.02752041,"semimajor_km":42164.439292632,"source":"CELESTRAK","updated_at":"2026-09-20T09:00:35.636368Z"}}}